Regional Weather Roundup
Issued by NWS Mt. Holly, NJ

Home | Current Version | Previous Version | Text Only | Print | Product List | Glossary On
Versions: 1 2 3 4 5 6 7 8 9 10 11 12 13 14 15 16 17 18 19 20 21 22 23 24 25 26 27
000
ASUS41 KPHI 032312
RWRPHI

REGIONAL WEATHER ROUNDUP
NATIONAL WEATHER SERVICE MOUNT HOLLY NJ
700 PM EDT TUE MAY 03 2016

NOTE:  "FAIR" INDICATES FEW OR NO CLOUDS BELOW 12,000 FEET WITH NO
SIGNIFICANT WEATHER AND/OR OBSTRUCTIONS TO VISIBILITY.

 * = STATION DOES NOT REPORT PRECIPITATION (E.G. RAIN, SNOW, ETC.)
        OR FOG.

NJZ015>026-040000-
SOUTHERN NEW JERSEY

CITY           SKY/WX    TMP DP  RH WIND       PRES   REMARKS
POMONA         CLOUDY    52  50  93 NE12      29.81S
WILDWOOD*      CLOUDY   N/A N/A N/A NE10      29.80R
MILLVILLE      CLOUDY    55  52  89 NE9       29.80S
WRIGHTSTOWN    CLOUDY    53  50  90 E7        29.81R
MOUNT HOLLY    CLOUDY    54  51  90 E3        29.83R
TRENTON        CLOUDY    54  51  90 SE6       29.82R FOG

$$
NJZ001>014-040000-
NORTHERN NEW JERSEY

CITY           SKY/WX    TMP DP  RH WIND       PRES   REMARKS
SUSSEX         CLOUDY    52  48  86 E5        29.83R
ANDOVER*         N/A     51  49  92 CALM      29.82R
MORRISTOWN     LGT RAIN  54  52  94 CALM      29.83R FOG
NEWARK         DRIZZLE   54  50  87 S5        29.83R FOG
TETERBORO      LGT RAIN  54  48  82 E5        29.82R FOG
CALDWELL       CLOUDY    53  51  93 S3        29.83R FOG
SOMERVILLE     CLOUDY    54  52  93 E3        29.81R FOG
ALLAIRE*       LGT RAIN  49  48  97 E8        29.84R FOG
TOMS RIVER*    CLOUDY    50  46  87 NE6       29.84R

$$
PAZ043-044-047-054-055-060>062-066>071-040000-
EASTERN PENNSYLVANIA

CITY           SKY/WX    TMP DP  RH WIND       PRES   REMARKS
PHILADELPHIA   CLOUDY    57  51  80 E7        29.82R
NORTH PHILA    CLOUDY    57  52  83 E7        29.84R
BLUE BELL*     CLOUDY    54  52  94 E3        29.81R
DOYLESTOWN     CLOUDY    53  52  96 CALM      29.81R FOG
QUAKERTOWN*    CLOUDY    55  54  94 SE5       29.82S
PERKASIE*      CLOUDY    54  54 100 E5        29.82S FOG
POTTSTOWN      CLOUDY    55  53  93 E3        29.82S
LANCASTER      MOSUNNY   58  53  84 E8        29.79S
COATESVILLE    CLOUDY    55 N/A N/A CALM      29.81S
READING        CLOUDY    58  51  78 CALM      29.79S
ALLENTOWN      CLOUDY    56  51  84 E6        29.81S
MOUNT POCONO   CLOUDY    48  46  93 SE5       29.80R FOG
HAZLETON       FOG       50  50 100 CALM      29.83S VSB<1/4
LEHIGHTON      CLOUDY    54  52  94 CALM      29.81S
WILKES BARRE   LGT RAIN  50  49  96 CALM      29.80S FOG

$$
DEZALL-MDZ008-012-015-019-020-040000-
DELAWARE AND EASTERN MARYLAND

CITY           SKY/WX    TMP DP  RH WIND       PRES   REMARKS
WILMINGTON     CLOUDY    57  52  83 E9        29.80S
DOVER          CLOUDY    56  56 100 NE8       29.78F
GEORGETOWN     CLOUDY    57  56  96 NE8       29.80R FOG
EASTON         CLOUDY   N/A N/A N/A E6        29.82R
PATUXENT       LGT RAIN  61  58  90 N12       29.78R FOG
OCEAN CITY     CLOUDY    54  53  97 NE8       29.79R FOG
WALLOPS ISLAND LGT RAIN  57  56  96 E17G24    29.78R
CAMBRIDGE      CLOUDY    61  57  88 N6        29.78R
SALISBURY      CLOUDY    60  57  89 NE10      29.77R

$$
PAZ001-021-NYZ056-072-MDZ011-DCZ001-040000-
OTHER NEARBY LOCATIONS

CITY           SKY/WX    TMP DP  RH WIND       PRES   REMARKS
HARRISBURG     PTSUNNY   60  53  77 SE10      29.77R
STATE COLLEGE  CLOUDY    59  50  72 NE6       29.76S
WILLIAMSPORT   PTSUNNY   57  47  69 E3        29.78S
BINGHAMTON     CLOUDY    47  45  93 CALM      29.79S
NEW YORK CITY  CLOUDY    53  49  86 E7        29.85S
BALTIMORE      LGT RAIN  60  56  86 E14       29.76F
WASHINGTON DC  PTSUNNY   63  59  87 E13       29.75S

$$




USA.gov is the U.S. government's official web portal to all federal, state and local government web resources and services.